M I D A S
Marine Information and Data Acquisition System
Tripno 1638 of the Zeeleeuw from 2009-02-03 07:50:40 to 2009-02-03 15:48:55
Back to CruiseResearch ActivitiesStationsMapUnderway DataData graphs

EquipmentUnitsComment
TimeDGPSUTC
LatitudeDGPSDM.mWGS84
LongitudeDGPSDM.mWGS84
HeadingGyrodeg 
SOGDGPSknotsSpeed over ground
COGDGPSdegCourse over ground
DepthEcho soundermeters200 kHz
Missing or incorrect values are displayed as -999
Navigation data collected by the RV Zeeleeuw from 2009-02-03 07:49:35 to 2009-02-03 16:00:02
                                                                                    Next 1000 lines
Time Latitude Longitude Heading SOG COG Depth
2009-02-03 07:49:46 51°13.661 2°55.956 115.7 0.7 292 7.1
2009-02-03 07:49:51 51°13.662 2°55.954 115.4 0.9 296 6.9
2009-02-03 07:49:55 51°13.662 2°55.952 115.3 1.2 296 6.7
2009-02-03 07:50:01 51°13.663 2°55.948 115.3 1.4 296 6.7
2009-02-03 07:50:06 51°13.665 2°55.945 115.6 1.7 298 7
2009-02-03 07:50:11 51°13.666 2°55.942 115.8 1.8 297 4.9
2009-02-03 07:50:16 51°13.667 2°55.938 116 2 298 -999
2009-02-03 07:50:21 51°13.668 2°55.934 115.9 2.2 299 -999
2009-02-03 07:50:26 51°13.67 2°55.929 115.3 2.3 297 -999
2009-02-03 07:50:31 51°13.672 2°55.924 114.5 2.5 297 -999
2009-02-03 07:50:36 51°13.673 2°55.919 113.7 2.6 295 -999
2009-02-03 07:50:41 51°13.675 2°55.913 113 2.8 295 -999
2009-02-03 07:50:46 51°13.676 2°55.907 112.4 3 294 -999
2009-02-03 07:50:51 51°13.678 2°55.901 111.9 3.1 293 -999
2009-02-03 07:50:56 51°13.68 2°55.895 111.4 3.2 292 -999
2009-02-03 07:51:01 51°13.682 2°55.888 110.9 3.3 292 -999
2009-02-03 07:51:06 51°13.683 2°55.881 110.5 3.4 292 -999
2009-02-03 07:51:11 51°13.685 2°55.874 110.4 3.4 291 -999
2009-02-03 07:51:16 51°13.687 2°55.867 110.1 3.6 292 -999
2009-02-03 07:51:21 51°13.689 2°55.859 109.5 3.6 291 -999
2009-02-03 07:51:26 51°13.691 2°55.851 108.9 3.7 291 -999
2009-02-03 07:51:31 51°13.693 2°55.844 108.4 3.7 290 -999
2009-02-03 07:51:36 51°13.694 2°55.836 107.4 3.7 289 -999
2009-02-03 07:51:41 51°13.696 2°55.829 106 3.5 288 -999
2009-02-03 07:51:46 51°13.697 2°55.822 104.3 3.4 286 -999
2009-02-03 07:51:51 51°13.698 2°55.815 102.6 3.3 285 -999
2009-02-03 07:51:56 51°13.699 2°55.808 100.9 3.4 283 -999
2009-02-03 07:52:01 51°13.7 2°55.8 99 3.4 281 -999
2009-02-03 07:52:06 51°13.701 2°55.793 97.2 3.3 279 -999
2009-02-03 07:52:11 51°13.701 2°55.786 95.8 3.2 278 -999
2009-02-03 07:52:16 51°13.702 2°55.779 94.2 3.1 276 -999
2009-02-03 07:52:21 51°13.703 2°55.773 92.4 2.9 276 -999
2009-02-03 07:52:26 51°13.703 2°55.767 91.1 2.7 276 -999
2009-02-03 07:52:31 51°13.704 2°55.762 90.2 2.1 277 -999
2009-02-03 07:52:36 51°13.704 2°55.76 88 1 282 -999
2009-02-03 07:52:41 51°13.704 2°55.76 84.5 0.4 354 -999
2009-02-03 07:52:46 51°13.705 2°55.761 76.6 0.9 57 -999
2009-02-03 07:52:51 51°13.706 2°55.764 70.3 1.3 51 -999
2009-02-03 07:52:56 51°13.708 2°55.767 62.6 1.7 53 -999
2009-02-03 07:53:01 51°13.709 2°55.769 55.4 1.5 44 4.9
2009-02-03 07:53:06 51°13.711 2°55.771 51.2 1.1 44 4.8
2009-02-03 07:53:11 51°13.711 2°55.772 48.4 0.5 43 4.8
2009-02-03 07:53:16 51°13.711 2°55.772 45.9 0.1 299 4.8
2009-02-03 07:53:21 51°13.711 2°55.771 42.4 0.5 216 4.8
2009-02-03 07:53:26 51°13.71 2°55.77 39.5 1 215 4.9
2009-02-03 07:53:31 51°13.708 2°55.768 36.6 1.5 213 13.2
2009-02-03 07:53:36 51°13.706 2°55.766 34.3 1.8 212 13.3
2009-02-03 07:53:41 51°13.704 2°55.764 31.9 1.8 210 -999
2009-02-03 07:53:46 51°13.701 2°55.762 30.4 1.7 208 -999
2009-02-03 07:53:51 51°13.7 2°55.76 29.9 1.3 214 -999
2009-02-03 07:53:56 51°13.699 2°55.76 29.2 0.5 204 -999
2009-02-03 07:54:01 51°13.699 2°55.759 26.2 0.2 305 -999
2009-02-03 07:54:06 51°13.7 2°55.76 22.2 0.7 16 -999
2009-02-03 07:54:11 51°13.703 2°55.76 18.2 1.5 9 -999
2009-02-03 07:54:16 51°13.706 2°55.761 11.2 2.2 5 -999
2009-02-03 07:54:21 51°13.709 2°55.76 1.7 2.7 355 -999
2009-02-03 07:54:26 51°13.713 2°55.759 354 3.2 350 -999
2009-02-03 07:54:31 51°13.718 2°55.757 347.7 3.6 343 -999
2009-02-03 07:54:36 51°13.724 2°55.753 341.7 4.2 337 13.2
2009-02-03 07:54:41 51°13.729 2°55.748 336.9 4.8 333 13.2
2009-02-03 07:54:46 51°13.736 2°55.743 333.7 5.5 331 13.1
2009-02-03 07:54:50 51°13.741 2°55.737 331.4 4.7 329 12.5
2009-02-03 07:54:56 51°13.75 2°55.729 329.6 5.7 328 11.6
2009-02-03 07:55:01 51°13.758 2°55.721 328.6 6.5 327 10.9
2009-02-03 07:55:06 51°13.765 2°55.713 328 6.6 327 11
2009-02-03 07:55:11 51°13.773 2°55.705 327.6 6.9 326 10.9
2009-02-03 07:55:16 51°13.781 2°55.696 326.9 7 325 -999
2009-02-03 07:55:21 51°13.79 2°55.687 326.2 7.2 325 10.8
2009-02-03 07:55:26 51°13.798 2°55.678 325.9 7.3 325 11
2009-02-03 07:55:31 51°13.807 2°55.668 325.8 7.5 325 11.1
2009-02-03 07:55:36 51°13.815 2°55.659 325.5 7.6 326 11
2009-02-03 07:55:41 51°13.824 2°55.649 325.6 7.7 327 10.9
2009-02-03 07:55:46 51°13.833 2°55.64 326.6 7.8 328 11
2009-02-03 07:55:51 51°13.843 2°55.631 327.8 7.9 329 11
2009-02-03 07:55:56 51°13.852 2°55.622 329.1 8 330 10.9
2009-02-03 07:56:01 51°13.862 2°55.613 329.8 8.1 330 10.9
2009-02-03 07:56:06 51°13.872 2°55.604 330.5 8.1 331 10.9
2009-02-03 07:56:10 51°13.88 2°55.598 331.7 8.2 332 11
2009-02-03 07:56:16 51°13.892 2°55.587 332.7 8.2 332 11
2009-02-03 07:56:21 51°13.902 2°55.579 333.4 8.3 334 10.9
2009-02-03 07:56:26 51°13.913 2°55.571 334 8.4 333 11
2009-02-03 07:56:30 51°13.921 2°55.565 334.3 8.4 334 11
2009-02-03 07:56:35 51°13.932 2°55.556 334.7 8.4 333 10.9
2009-02-03 07:56:41 51°13.944 2°55.547 334.9 8.4 335 10.9
2009-02-03 07:56:46 51°13.955 2°55.539 335.5 8.5 335 10.9
2009-02-03 07:56:51 51°13.966 2°55.531 336 8.5 335 11
2009-02-03 07:56:56 51°13.976 2°55.523 336 8.5 335 11
2009-02-03 07:57:01 51°13.987 2°55.515 336.3 8.4 336 11
2009-02-03 07:57:06 51°13.997 2°55.507 336.7 8.5 334 10.9
2009-02-03 07:57:11 51°14.008 2°55.499 335.8 8.5 335 11
2009-02-03 07:57:15 51°14.016 2°55.492 335.6 8.4 335 10.9
2009-02-03 07:57:21 51°14.029 2°55.483 336.5 8.4 336 10.8
2009-02-03 07:57:26 51°14.039 2°55.475 337 8.4 335 10.9
2009-02-03 07:57:31 51°14.05 2°55.467 336.4 8.4 335 10.9
2009-02-03 07:57:36 51°14.061 2°55.459 336.1 8.5 335 11
2009-02-03 07:57:41 51°14.071 2°55.452 336.1 8.5 336 11
2009-02-03 07:57:46 51°14.082 2°55.443 336.4 8.5 334 10.9
2009-02-03 07:57:51 51°14.092 2°55.435 335.7 8.5 334 11
2009-02-03 07:57:56 51°14.103 2°55.427 335.1 8.6 333 10.9
2009-02-03 07:58:01 51°14.114 2°55.418 334.8 8.6 333 10.9
2009-02-03 07:58:06 51°14.124 2°55.409 334.1 8.7 332 10.9
2009-02-03 07:58:11 51°14.135 2°55.4 333.9 8.8 332 11
2009-02-03 07:58:16 51°14.145 2°55.39 333.6 8.8 330 11
2009-02-03 07:58:21 51°14.156 2°55.38 332.6 8.8 330 11
2009-02-03 07:58:26 51°14.167 2°55.37 331.9 8.9 329 11
2009-02-03 07:58:31 51°14.177 2°55.36 331.2 8.9 328 11
2009-02-03 07:58:36 51°14.188 2°55.349 329.8 9 326 11
2009-02-03 07:58:41 51°14.198 2°55.338 328.1 9 325 11
2009-02-03 07:58:46 51°14.208 2°55.326 326.7 9 324 11
2009-02-03 07:58:51 51°14.218 2°55.314 325.8 9.1 324 11
2009-02-03 07:58:55 51°14.226 2°55.304 325 9.2 321 11
2009-02-03 07:59:01 51°14.238 2°55.288 323.7 9.2 320 11
2009-02-03 07:59:06 51°14.248 2°55.275 322.3 9.3 319 11
2009-02-03 07:59:11 51°14.257 2°55.26 320.3 9.4 317 11
2009-02-03 07:59:15 51°14.264 2°55.248 318.3 9.4 315 11
2009-02-03 07:59:21 51°14.276 2°55.231 317 9.5 315 11
2009-02-03 07:59:26 51°14.285 2°55.215 316.5 9.6 313 11
2009-02-03 07:59:31 51°14.294 2°55.2 315.2 9.7 313 11
2009-02-03 07:59:36 51°14.303 2°55.184 314.2 9.7 313 10.9
2009-02-03 07:59:41 51°14.312 2°55.168 314 9.8 313 11.1
2009-02-03 07:59:46 51°14.322 2°55.153 314 9.8 313 11.1
2009-02-03 07:59:51 51°14.331 2°55.136 314.2 9.8 311 11.1
2009-02-03 07:59:56 51°14.339 2°55.119 313.1 9.9 310 11.1
2009-02-03 08:00:01 51°14.348 2°55.103 312.1 10 310 11.1
2009-02-03 08:00:06 51°14.357 2°55.085 311.6 10 309 11.1
2009-02-03 08:00:10 51°14.364 2°55.071 310.9 10.1 307 11.2
2009-02-03 08:00:16 51°14.374 2°55.05 309.6 10.2 307 11.2
2009-02-03 08:00:21 51°14.383 2°55.032 308.5 10.3 307 11.2
2009-02-03 08:00:26 51°14.392 2°55.014 308.1 10.4 309 11.2
2009-02-03 08:00:31 51°14.401 2°54.997 309.7 10.4 312 11.3
2009-02-03 08:00:36 51°14.412 2°54.98 312.6 10.5 315 11.4
2009-02-03 08:00:41 51°14.423 2°54.964 315.9 10.6 317 11.4
2009-02-03 08:00:46 51°14.434 2°54.949 318.7 10.7 319 11.4
2009-02-03 08:00:50 51°14.443 2°54.937 320.7 10.7 319 11.5
2009-02-03 08:00:56 51°14.457 2°54.918 321.7 10.9 321 11.6
2009-02-03 08:01:01 51°14.469 2°54.903 322.2 11 321 11.5
2009-02-03 08:01:06 51°14.481 2°54.888 322.5 11.1 324 11.4
2009-02-03 08:01:11 51°14.494 2°54.874 324.4 11.3 324 11.2
2009-02-03 08:01:15 51°14.504 2°54.862 325.3 11.3 324 11
2009-02-03 08:01:21 51°14.519 2°54.845 326 11.3 326 11.1
2009-02-03 08:01:26 51°14.533 2°54.832 327.6 11.4 328 11.1
2009-02-03 08:01:31 51°14.546 2°54.819 329.2 11.5 329 10.8
2009-02-03 08:01:35 51°14.557 2°54.808 329.9 11.6 329 10.9
2009-02-03 08:01:40 51°14.572 2°54.796 331.1 11.7 332 10.8
2009-02-03 08:01:46 51°14.589 2°54.781 333.1 11.8 331 10.7
2009-02-03 08:01:50 51°14.601 2°54.771 333.5 11.9 331 10.7
2009-02-03 08:01:55 51°14.615 2°54.757 332.8 12 330 10.8
2009-02-03 08:02:00 51°14.629 2°54.744 332.1 12.1 330 10.5
2009-02-03 08:02:05 51°14.644 2°54.73 331.5 12.1 329 10.6
2009-02-03 08:02:10 51°14.658 2°54.717 331.2 12.2 329 10.5
2009-02-03 08:02:15 51°14.673 2°54.703 331 12.3 330 10.6
2009-02-03 08:02:20 51°14.688 2°54.689 330.9 12.2 330 10.7
2009-02-03 08:02:25 51°14.703 2°54.675 330.8 12.4 330 10.6
2009-02-03 08:02:30 51°14.717 2°54.662 331 12.3 330 10.6
2009-02-03 08:02:35 51°14.732 2°54.649 331 12.3 330 10.6
2009-02-03 08:02:39 51°14.744 2°54.638 330.9 12.3 331 10.6
2009-02-03 08:02:44 51°14.759 2°54.624 330.8 12.3 331 10.7
2009-02-03 08:02:49 51°14.774 2°54.611 331 12.3 331 10.6
2009-02-03 08:02:54 51°14.789 2°54.598 331 12.4 330 10.5
2009-02-03 08:02:59 51°14.804 2°54.584 330.7 12.4 331 10.4
2009-02-03 08:03:04 51°14.819 2°54.571 331 12.3 331 10.5
2009-02-03 08:03:09 51°14.834 2°54.558 331.2 12.4 331 10.7
2009-02-03 08:03:14 51°14.849 2°54.545 331.2 12.4 331 10.6
2009-02-03 08:03:19 51°14.864 2°54.532 331.3 12.4 331 10.7
2009-02-03 08:03:24 51°14.88 2°54.519 331.6 12.5 332 11
2009-02-03 08:03:29 51°14.895 2°54.506 331.6 12.4 332 11.1
2009-02-03 08:03:34 51°14.91 2°54.493 331.6 12.5 332 11.2
2009-02-03 08:03:39 51°14.925 2°54.48 332 12.5 332 11.5
2009-02-03 08:03:43 51°14.938 2°54.47 332 12.5 332 11.5
2009-02-03 08:03:48 51°14.953 2°54.456 332.1 12.5 331 11.7
2009-02-03 08:03:53 51°14.968 2°54.443 331.7 12.5 331 12.3
2009-02-03 08:03:58 51°14.983 2°54.43 331.6 12.5 332 12.2
2009-02-03 08:04:03 51°14.999 2°54.417 331.9 12.5 332 12.2
2009-02-03 08:04:08 51°15.014 2°54.404 332.2 12.5 332 12
2009-02-03 08:04:13 51°15.029 2°54.391 332.5 12.5 332 12.2
2009-02-03 08:04:18 51°15.045 2°54.379 332.7 12.5 332 12.2
2009-02-03 08:04:23 51°15.06 2°54.366 332.7 12.4 332 12.2
2009-02-03 08:04:28 51°15.075 2°54.353 332.4 12.4 331 12.3
2009-02-03 08:04:33 51°15.09 2°54.339 332 12.3 331 12.4
2009-02-03 08:04:38 51°15.105 2°54.326 331.7 12.3 331 11.9
2009-02-03 08:04:42 51°15.117 2°54.316 332 12.3 331 12.3
2009-02-03 08:04:47 51°15.132 2°54.302 332 12.3 331 12.2
2009-02-03 08:04:52 51°15.146 2°54.29 332.3 12.2 332 12.2
2009-02-03 08:04:57 51°15.161 2°54.277 333 12.2 332 12.1
2009-02-03 08:05:02 51°15.176 2°54.264 332.9 12.2 331 12.3
2009-02-03 08:05:07 51°15.191 2°54.251 332.5 12.2 332 12.3
2009-02-03 08:05:12 51°15.206 2°54.239 332.7 12.2 331 12.3
2009-02-03 08:05:17 51°15.221 2°54.226 332.7 12.1 332 12.3
2009-02-03 08:05:22 51°15.236 2°54.213 333.3 12.2 331 12.5
2009-02-03 08:05:27 51°15.25 2°54.2 332.9 12.2 331 12.4
2009-02-03 08:05:32 51°15.265 2°54.187 332.5 12.2 331 12.3
2009-02-03 08:05:37 51°15.28 2°54.175 332.9 12.2 333 12.6
2009-02-03 08:05:42 51°15.295 2°54.162 333.4 12.2 332 12.2
2009-02-03 08:05:47 51°15.31 2°54.15 333.2 12.2 332 12.2
2009-02-03 08:05:52 51°15.325 2°54.137 333.2 12.2 332 11.6
2009-02-03 08:05:57 51°15.34 2°54.125 333.2 12.2 332 10.8
2009-02-03 08:06:02 51°15.355 2°54.111 333.2 12.2 332 10.6
2009-02-03 08:06:07 51°15.369 2°54.099 332.8 12.1 331 10.7
2009-02-03 08:06:12 51°15.384 2°54.086 332.6 12.1 331 10.9
2009-02-03 08:06:17 51°15.399 2°54.073 332.8 12.2 331 10.9
2009-02-03 08:06:22 51°15.414 2°54.06 332.2 12.1 331 10.8
2009-02-03 08:06:27 51°15.429 2°54.048 333.1 12.1 333 10.7
2009-02-03 08:06:32 51°15.444 2°54.035 333.5 12.2 332 10.8
2009-02-03 08:06:37 51°15.459 2°54.023 334.4 12.2 333 10.9
2009-02-03 08:06:42 51°15.474 2°54.011 334.4 12.2 334 10.7
2009-02-03 08:06:47 51°15.489 2°53.999 334.9 12.2 333 10.8
2009-02-03 08:06:52 51°15.505 2°53.987 335.3 12.2 335 10.9
2009-02-03 08:06:57 51°15.52 2°53.975 335.6 12.2 334 10.9
2009-02-03 08:07:02 51°15.535 2°53.963 335.5 12.3 334 11.1
2009-02-03 08:07:07 51°15.551 2°53.951 335.6 12.3 334 11.2
2009-02-03 08:07:12 51°15.566 2°53.939 335.5 12.3 334 11.2
2009-02-03 08:07:17 51°15.581 2°53.927 335.4 12.3 333 11.4
2009-02-03 08:07:22 51°15.596 2°53.915 335.1 12.3 334 11.4
2009-02-03 08:07:27 51°15.612 2°53.903 335.1 12.3 333 11.4
2009-02-03 08:07:32 51°15.627 2°53.891 334.9 12.3 333 11.3
2009-02-03 08:07:37 51°15.642 2°53.878 334.6 12.3 333 11.6
2009-02-03 08:07:42 51°15.657 2°53.866 334.7 12.4 333 11.8
2009-02-03 08:07:47 51°15.672 2°53.853 334 12.4 331 11.5
2009-02-03 08:07:52 51°15.688 2°53.84 333.2 12.3 332 11.7
2009-02-03 08:07:57 51°15.703 2°53.826 332.4 12.4 330 11.7
2009-02-03 08:08:02 51°15.718 2°53.813 331.7 12.4 331 11.6
2009-02-03 08:08:07 51°15.732 2°53.799 331.4 12.4 330 11.9
2009-02-03 08:08:12 51°15.747 2°53.786 331.2 12.4 330 11.9
2009-02-03 08:08:17 51°15.762 2°53.772 330.7 12.4 330 11.8
2009-02-03 08:08:22 51°15.777 2°53.759 330.7 12.4 331 11.9
2009-02-03 08:08:27 51°15.792 2°53.745 331 12.4 330 12
2009-02-03 08:08:32 51°15.807 2°53.732 330.8 12.4 330 12
2009-02-03 08:08:37 51°15.822 2°53.718 330.5 12.4 330 12.1
2009-02-03 08:08:42 51°15.837 2°53.705 330.4 12.4 330 12.1
2009-02-03 08:08:47 51°15.852 2°53.691 330.5 12.4 331 12.2
2009-02-03 08:08:52 51°15.867 2°53.678 331.1 12.4 331 12.1
2009-02-03 08:08:57 51°15.882 2°53.664 331.2 12.4 331 11.8
2009-02-03 08:09:02 51°15.897 2°53.651 331.2 12.4 331 11.9
2009-02-03 08:09:07 51°15.912 2°53.638 330.9 12.4 331 12.1
2009-02-03 08:09:12 51°15.927 2°53.625 330.9 12.4 331 12.1
2009-02-03 08:09:17 51°15.942 2°53.612 331.2 12.4 331 12.3
2009-02-03 08:09:22 51°15.957 2°53.598 331.2 12.4 332 12.2
2009-02-03 08:09:27 51°15.973 2°53.585 331.4 12.4 331 12.2
2009-02-03 08:09:32 51°15.988 2°53.572 331.2 12.4 331 12.1
2009-02-03 08:09:37 51°16.003 2°53.559 331.3 12.5 332 12.3
2009-02-03 08:09:42 51°16.018 2°53.546 331.8 12.4 333 12.3
2009-02-03 08:09:47 51°16.034 2°53.534 332.3 12.4 333 12.3
2009-02-03 08:09:52 51°16.049 2°53.522 332.2 12.3 333 12.2
2009-02-03 08:09:57 51°16.064 2°53.51 332.4 12.3 334 12.3
2009-02-03 08:10:02 51°16.08 2°53.498 333.3 12.3 334 12.3
2009-02-03 08:10:07 51°16.095 2°53.486 333.9 12.3 335 12.4
2009-02-03 08:10:12 51°16.11 2°53.475 334.2 12.3 335 12.4
2009-02-03 08:10:18 51°16.129 2°53.461 334.7 12.4 335 12.4
2009-02-03 08:10:22 51°16.141 2°53.452 334.9 12.3 335 12.4
2009-02-03 08:10:27 51°16.157 2°53.44 335 12.3 335 12.5
2009-02-03 08:10:32 51°16.172 2°53.429 334.5 12.3 335 12.6
2009-02-03 08:10:37 51°16.188 2°53.417 334.3 12.2 335 12.4
2009-02-03 08:10:42 51°16.203 2°53.406 334.5 12.3 335 12.6
2009-02-03 08:10:47 51°16.218 2°53.394 334.5 12.3 335 12.4
2009-02-03 08:10:52 51°16.234 2°53.382 334.7 12.3 334 12.4
2009-02-03 08:10:57 51°16.249 2°53.371 334.4 12.2 334 12.4
2009-02-03 08:11:02 51°16.265 2°53.359 334.2 12.2 334 12.5
2009-02-03 08:11:06 51°16.277 2°53.35 334.1 12.2 334 12.4
2009-02-03 08:11:12 51°16.295 2°53.336 334.1 12.2 334 12.5
2009-02-03 08:11:17 51°16.311 2°53.324 334 12.3 334 12.4
2009-02-03 08:11:22 51°16.326 2°53.312 334 12.3 334 12.5
2009-02-03 08:11:27 51°16.341 2°53.3 334.2 12.3 334 12.5
2009-02-03 08:11:32 51°16.356 2°53.288 334.1 12.3 334 12.7
2009-02-03 08:11:37 51°16.372 2°53.276 333.9 12.3 333 12.5
2009-02-03 08:11:42 51°16.387 2°53.264 333.4 12.3 334 12.4
2009-02-03 08:11:47 51°16.402 2°53.251 333.2 12.3 333 12.5
2009-02-03 08:11:52 51°16.418 2°53.239 333.4 12.3 334 12.6
2009-02-03 08:11:57 51°16.433 2°53.227 333.4 12.3 333 12.5
2009-02-03 08:12:02 51°16.448 2°53.215 333.4 12.4 334 12.6
2009-02-03 08:12:07 51°16.463 2°53.202 333.3 12.3 333 12.6
2009-02-03 08:12:12 51°16.479 2°53.19 333.4 12.5 334 12.6
2009-02-03 08:12:17 51°16.494 2°53.178 333.5 12.5 334 12.7
2009-02-03 08:12:22 51°16.51 2°53.166 333.5 12.4 334 12.6
2009-02-03 08:12:27 51°16.525 2°53.153 333.3 12.5 333 12.5
2009-02-03 08:12:32 51°16.541 2°53.141 332.9 12.6 333 12.5
2009-02-03 08:12:37 51°16.556 2°53.129 333.1 12.5 333 12.4
2009-02-03 08:12:42 51°16.572 2°53.116 333.1 12.5 333 12.4
2009-02-03 08:12:47 51°16.587 2°53.104 332.9 12.5 333 12.3
2009-02-03 08:12:52 51°16.603 2°53.091 332.9 12.5 333 12.1
2009-02-03 08:12:57 51°16.618 2°53.079 333.4 12.5 334 12.4
2009-02-03 08:13:02 51°16.634 2°53.067 333.5 12.5 334 12.2
2009-02-03 08:13:07 51°16.65 2°53.055 333.5 12.5 334 12.2
2009-02-03 08:13:12 51°16.665 2°53.043 334 12.5 335 12.4
2009-02-03 08:13:17 51°16.681 2°53.031 334 12.5 334 12.3
2009-02-03 08:13:22 51°16.696 2°53.018 333.5 12.4 334 12.2
2009-02-03 08:13:26 51°16.709 2°53.009 333.2 12.5 334 12
2009-02-03 08:13:32 51°16.727 2°52.994 333 12.5 333 11.8
2009-02-03 08:13:37 51°16.743 2°52.982 332.9 12.5 333 11.9
2009-02-03 08:13:42 51°16.758 2°52.969 332.4 12.4 333 11.5
2009-02-03 08:13:47 51°16.773 2°52.956 332.2 12.3 333 11
2009-02-03 08:13:52 51°16.789 2°52.944 332.1 12.4 333 10.8
2009-02-03 08:13:57 51°16.804 2°52.931 332.5 12.3 333 10.3
2009-02-03 08:14:02 51°16.819 2°52.919 332.8 12.4 333 10.2
2009-02-03 08:14:07 51°16.835 2°52.907 333 12.3 334 9.9
2009-02-03 08:14:12 51°16.85 2°52.895 332.8 12.4 333 9.9
2009-02-03 08:14:17 51°16.865 2°52.882 332.6 12.4 333 9.8
2009-02-03 08:14:22 51°16.881 2°52.87 333 12.4 333 9.8
2009-02-03 08:14:27 51°16.896 2°52.858 333.1 12.5 334 9.9
2009-02-03 08:14:31 51°16.908 2°52.848 333.2 12.5 333 10
2009-02-03 08:14:37 51°16.927 2°52.834 333.1 12.5 334 9.9
2009-02-03 08:14:42 51°16.943 2°52.821 333.2 12.4 333 10
2009-02-03 08:14:47 51°16.958 2°52.809 333 12.5 334 10.1
2009-02-03 08:14:52 51°16.974 2°52.797 332.8 12.5 333 10.2
2009-02-03 08:14:57 51°16.989 2°52.784 332.9 12.5 334 10.2
2009-02-03 08:15:02 51°17.004 2°52.771 332.7 12.5 332 10.5
2009-02-03 08:15:07 51°17.02 2°52.759 332.4 12.5 333 10.6
2009-02-03 08:15:12 51°17.036 2°52.746 332.4 12.6 332 10.7
2009-02-03 08:15:17 51°17.051 2°52.734 332.2 12.5 333 11
2009-02-03 08:15:22 51°17.067 2°52.721 332.7 12.6 333 10.9
2009-02-03 08:15:27 51°17.082 2°52.709 333 12.5 333 10.9
2009-02-03 08:15:32 51°17.097 2°52.696 332.9 12.5 333 10.6
2009-02-03 08:15:37 51°17.113 2°52.684 332.9 12.5 333 10.4
2009-02-03 08:15:42 51°17.128 2°52.672 332.8 12.5 333 10.2
2009-02-03 08:15:47 51°17.144 2°52.659 332.4 12.4 332 10.2
2009-02-03 08:15:52 51°17.158 2°52.645 331.8 12.3 331 10.2
2009-02-03 08:15:57 51°17.174 2°52.633 332 12.3 332 10.3
2009-02-03 08:16:02 51°17.189 2°52.62 332 12.4 332 10.3
2009-02-03 08:16:07 51°17.204 2°52.607 332.1 12.3 332 10.4
2009-02-03 08:16:12 51°17.22 2°52.596 334.9 12.3 337 10.6
2009-02-03 08:16:17 51°17.235 2°52.584 336.2 12.4 335 10.7
2009-02-03 08:16:22 51°17.251 2°52.574 336.8 12.4 337 10.7
2009-02-03 08:16:27 51°17.267 2°52.562 337.3 12.4 336 10.8
2009-02-03 08:16:32 51°17.283 2°52.553 337.9 12.4 338 10.9
2009-02-03 08:16:37 51°17.298 2°52.542 338.4 12.4 337 10.8
2009-02-03 08:16:42 51°17.315 2°52.534 341.4 12.3 343 10.8
2009-02-03 08:16:46 51°17.328 2°52.527 342.8 12.4 341 10.9
2009-02-03 08:16:52 51°17.348 2°52.518 344.8 12.5 345 10.9
2009-02-03 08:16:57 51°17.364 2°52.511 346.4 12.4 345 11.1
2009-02-03 08:17:02 51°17.381 2°52.505 347.2 12.5 347 10.9
2009-02-03 08:17:07 51°17.398 2°52.499 348.2 12.5 348 11.1
2009-02-03 08:17:12 51°17.415 2°52.493 349 12.5 348 11
2009-02-03 08:17:17 51°17.432 2°52.488 350.1 12.4 350 11
2009-02-03 08:17:22 51°17.449 2°52.484 350.9 12.5 351 11
2009-02-03 08:17:27 51°17.466 2°52.48 352.3 12.5 352 11.2
2009-02-03 08:17:32 51°17.483 2°52.476 353.4 12.5 352 11.1
2009-02-03 08:17:37 51°17.501 2°52.473 354.1 12.6 354 11.1
2009-02-03 08:17:42 51°17.518 2°52.47 354.7 12.5 353 10.9
2009-02-03 08:17:47 51°17.535 2°52.467 355.6 12.6 355 11
2009-02-03 08:17:51 51°17.549 2°52.465 355.7 12.6 353 11.1
2009-02-03 08:17:57 51°17.57 2°52.462 355.9 12.6 355 11.1
2009-02-03 08:18:02 51°17.588 2°52.459 356.6 12.5 355 11.3
2009-02-03 08:18:07 51°17.605 2°52.457 356.4 12.5 355 10.8
2009-02-03 08:18:12 51°17.622 2°52.455 356.6 12.6 356 11.2
2009-02-03 08:18:17 51°17.64 2°52.452 356.8 12.5 356 11.1
2009-02-03 08:18:22 51°17.657 2°52.452 357.8 12.5 358 10.9
2009-02-03 08:18:27 51°17.674 2°52.45 358.8 12.5 356 11.1
2009-02-03 08:18:32 51°17.691 2°52.448 358.6 12.5 357 10.9
2009-02-03 08:18:37 51°17.709 2°52.446 358.6 12.5 357 11
2009-02-03 08:18:42 51°17.727 2°52.446 359.4 12.6 358 11
2009-02-03 08:18:47 51°17.744 2°52.444 359.3 12.6 357 10.9
2009-02-03 08:18:52 51°17.761 2°52.443 359.6 12.5 357 11
2009-02-03 08:18:57 51°17.779 2°52.442 359.7 12.6 358 11
2009-02-03 08:19:02 51°17.796 2°52.441 359.9 12.6 358 11.2
2009-02-03 08:19:07 51°17.814 2°52.439 359 12.5 356 11
2009-02-03 08:19:12 51°17.831 2°52.437 358 12.6 356 11.3
2009-02-03 08:19:17 51°17.848 2°52.435 357.4 12.4 356 11
2009-02-03 08:19:22 51°17.865 2°52.434 357.5 12.5 357 11
2009-02-03 08:19:27 51°17.883 2°52.432 358.3 12.5 357 11.1
2009-02-03 08:19:32 51°17.9 2°52.431 358.6 12.5 358 11.3
2009-02-03 08:19:37 51°17.917 2°52.43 358.9 12.5 357 11.3
2009-02-03 08:19:42 51°17.935 2°52.429 359.3 12.5 357 11.3
2009-02-03 08:19:47 51°17.952 2°52.427 358.9 12.5 356 11.1
2009-02-03 08:19:52 51°17.969 2°52.425 358.3 12.4 357 11.2
2009-02-03 08:19:57 51°17.987 2°52.423 358.3 12.5 356 11.1
2009-02-03 08:20:02 51°18.004 2°52.422 358.4 12.5 357 11.3
2009-02-03 08:20:06 51°18.018 2°52.42 358.4 12.5 356 11.3
2009-02-03 08:20:12 51°18.039 2°52.418 357.8 12.6 356 11.4
2009-02-03 08:20:17 51°18.056 2°52.415 356.7 12.5 354 11.4
2009-02-03 08:20:22 51°18.073 2°52.413 356.4 12.5 355 11.5
2009-02-03 08:20:27 51°18.09 2°52.409 355.7 12.5 353 11.4
2009-02-03 08:20:32 51°18.107 2°52.407 356 12.5 355 11.4
2009-02-03 08:20:37 51°18.124 2°52.404 356.6 12.4 354 11.5
2009-02-03 08:20:42 51°18.142 2°52.403 357 12.5 357 11.5
2009-02-03 08:20:47 51°18.159 2°52.4 357.8 12.5 355 11.5
2009-02-03 08:20:52 51°18.176 2°52.399 357.9 12.5 357 11.4
2009-02-03 08:20:57 51°18.193 2°52.397 358.3 12.5 355 11.5
2009-02-03 08:21:02 51°18.211 2°52.395 358.2 12.5 357 11.6
2009-02-03 08:21:07 51°18.228 2°52.393 358.5 12.5 356 11.6
2009-02-03 08:21:11 51°18.242 2°52.392 358.3 12.4 357 11.6
2009-02-03 08:21:17 51°18.263 2°52.39 358.1 12.5 355 11.5
2009-02-03 08:21:22 51°18.28 2°52.388 357.4 12.5 356 11.7
2009-02-03 08:21:27 51°18.297 2°52.386 357.7 12.5 357 11.7
2009-02-03 08:21:32 51°18.314 2°52.384 357.7 12.6 356 11.9
2009-02-03 08:21:37 51°18.332 2°52.382 358.2 12.6 356 11.9
2009-02-03 08:21:42 51°18.349 2°52.38 357.8 12.5 356 11.7
2009-02-03 08:21:47 51°18.366 2°52.379 358.8 12.5 358 11.8
2009-02-03 08:21:52 51°18.384 2°52.378 359.3 12.6 358 12
2009-02-03 08:21:57 51°18.401 2°52.378 0.2 12.5 359 12
2009-02-03 08:22:02 51°18.419 2°52.377 0.7 12.6 359 11.8
2009-02-03 08:22:07 51°18.436 2°52.377 1 12.7 359 12.3
2009-02-03 08:22:12 51°18.454 2°52.377 1.4 12.6 -999 12.1
2009-02-03 08:22:17 51°18.471 2°52.377 2 12.7 -999 12
2009-02-03 08:22:22 51°18.489 2°52.377 2.1 12.6 -999 12.2
2009-02-03 08:22:27 51°18.506 2°52.377 1.8 12.6 -999 12
2009-02-03 08:22:32 51°18.524 2°52.377 1.9 12.6 -999 12.2
2009-02-03 08:22:37 51°18.541 2°52.377 2 12.7 -999 12.3
2009-02-03 08:22:42 51°18.559 2°52.377 1.8 12.7 -999 12.2
2009-02-03 08:22:47 51°18.576 2°52.377 1.8 12.7 -999 12.4
2009-02-03 08:22:52 51°18.594 2°52.377 1.7 12.6 1 12.4
2009-02-03 08:22:57 51°18.612 2°52.377 1.4 12.6 -999 12.3
2009-02-03 08:23:02 51°18.629 2°52.38 3.1 12.7 6 12.2
2009-02-03 08:23:07 51°18.647 2°52.382 5.2 12.7 3 12.5
2009-02-03 08:23:12 51°18.664 2°52.385 5.9 12.6 7 12.4
2009-02-03 08:23:17 51°18.681 2°52.388 7.4 12.7 7 12.6
2009-02-03 08:23:22 51°18.699 2°52.391 7.9 12.6 8 12.6
2009-02-03 08:23:26 51°18.713 2°52.394 8.6 12.6 7 12.7
2009-02-03 08:23:32 51°18.734 2°52.399 9.2 12.5 8 12.6
2009-02-03 08:23:37 51°18.751 2°52.403 9.3 12.5 8 12.7
2009-02-03 08:23:42 51°18.768 2°52.407 9.6 12.5 8 12.8
2009-02-03 08:23:47 51°18.785 2°52.411 10.1 12.5 9 13
2009-02-03 08:23:52 51°18.802 2°52.415 9.8 12.5 9 13
2009-02-03 08:23:57 51°18.819 2°52.418 9.7 12.5 7 13.1
2009-02-03 08:24:02 51°18.837 2°52.422 9.7 12.4 9 13.2
2009-02-03 08:24:07 51°18.854 2°52.426 9.7 12.5 8 13.1
2009-02-03 08:24:12 51°18.871 2°52.43 10.4 12.4 9 13.3
2009-02-03 08:24:17 51°18.888 2°52.434 10.4 12.5 9 13.5
2009-02-03 08:24:22 51°18.905 2°52.439 11.1 12.4 10 13.3
2009-02-03 08:24:27 51°18.922 2°52.443 12.3 12.4 9 13.4
2009-02-03 08:24:31 51°18.935 2°52.447 11.9 12.5 9 13.4
2009-02-03 08:24:37 51°18.956 2°52.452 11.2 12.4 9 13.6
2009-02-03 08:24:42 51°18.973 2°52.456 11.2 12.3 9 13.6
2009-02-03 08:24:47 51°18.99 2°52.46 11.2 12.4 9 13.6
2009-02-03 08:24:52 51°19.007 2°52.465 11 12.4 9 13.9
2009-02-03 08:24:57 51°19.024 2°52.469 10.8 12.4 8 13.8
2009-02-03 08:25:02 51°19.041 2°52.473 10.5 12.4 9 14
2009-02-03 08:25:07 51°19.058 2°52.477 10.8 12.5 8 13.9
2009-02-03 08:25:12 51°19.076 2°52.481 10.7 12.4 7 14
2009-02-03 08:25:17 51°19.092 2°52.485 10.2 12.4 9 14.1
2009-02-03 08:25:22 51°19.11 2°52.489 10.5 12.5 8 14.3
2009-02-03 08:25:27 51°19.127 2°52.493 10.5 12.4 8 14.4
2009-02-03 08:25:32 51°19.144 2°52.497 10.3 12.4 9 14.5
2009-02-03 08:25:37 51°19.161 2°52.5 10.4 12.4 7 14.4
2009-02-03 08:25:42 51°19.178 2°52.505 10.9 12.4 11 14.3
2009-02-03 08:25:47 51°19.195 2°52.511 12.8 12.4 11 14.6
2009-02-03 08:25:52 51°19.212 2°52.517 13.7 12.4 14 14.6
2009-02-03 08:25:57 51°19.228 2°52.523 15.1 12.3 13 14.6
2009-02-03 08:26:02 51°19.245 2°52.529 16.2 12.4 14 14.8
2009-02-03 08:26:07 51°19.262 2°52.536 16.9 12.5 15 14.7
2009-02-03 08:26:12 51°19.279 2°52.543 17.2 12.5 15 14.8
2009-02-03 08:26:17 51°19.295 2°52.551 17.9 12.5 15 15
2009-02-03 08:26:22 51°19.312 2°52.558 17.8 12.5 16 14.9
2009-02-03 08:26:27 51°19.329 2°52.566 18.8 12.6 17 15.1
2009-02-03 08:26:32 51°19.345 2°52.573 18.2 12.5 16 15
2009-02-03 08:26:37 51°19.362 2°52.582 18.8 12.5 17 15.2
2009-02-03 08:26:42 51°19.378 2°52.59 19.8 12.5 17 15.3
2009-02-03 08:26:46 51°19.392 2°52.597 20.3 12.5 19 15.2
2009-02-03 08:26:52 51°19.412 2°52.608 21.1 12.6 18 15.2
2009-02-03 08:26:57 51°19.428 2°52.617 21.3 12.6 20 15.3
2009-02-03 08:27:02 51°19.445 2°52.626 21.8 12.6 18 15.4
2009-02-03 08:27:07 51°19.461 2°52.635 21.4 12.6 20 15.5
2009-02-03 08:27:12 51°19.478 2°52.644 21.5 12.6 19 15.6
2009-02-03 08:27:17 51°19.494 2°52.654 21.5 12.6 19 15.6
2009-02-03 08:27:22 51°19.511 2°52.662 21.1 12.5 19 15.7
2009-02-03 08:27:27 51°19.527 2°52.672 21.6 12.6 19 15.8
2009-02-03 08:27:32 51°19.544 2°52.68 21 12.6 17 15.8
2009-02-03 08:27:37 51°19.56 2°52.689 20.2 12.5 18 15.8
2009-02-03 08:27:42 51°19.577 2°52.697 20.3 12.6 17 15.9
2009-02-03 08:27:47 51°19.593 2°52.706 20.7 12.5 19 15.9
2009-02-03 08:27:51 51°19.607 2°52.712 20.6 12.5 18 15.9
2009-02-03 08:27:57 51°19.626 2°52.723 20.9 12.5 18 16.2
2009-02-03 08:28:02 51°19.643 2°52.731 20.7 12.6 18 16.1
2009-02-03 08:28:07 51°19.66 2°52.74 20.6 12.6 18 16
2009-02-03 08:28:12 51°19.676 2°52.748 20.6 12.5 17 16.2
2009-02-03 08:28:17 51°19.693 2°52.757 20.2 12.6 18 16
2009-02-03 08:28:22 51°19.71 2°52.764 20.2 12.6 16 16.2
2009-02-03 08:28:27 51°19.726 2°52.773 19.9 12.6 18 16.2
2009-02-03 08:28:32 51°19.743 2°52.78 18.8 12.7 15 16.2
2009-02-03 08:28:37 51°19.76 2°52.788 18.4 12.7 16 16.3
2009-02-03 08:28:42 51°19.777 2°52.796 18.4 12.7 15 16.3
2009-02-03 08:28:47 51°19.794 2°52.804 18.6 12.7 17 16.4
2009-02-03 08:28:52 51°19.811 2°52.812 19.3 12.7 17 16.6
2009-02-03 08:28:57 51°19.827 2°52.821 19.6 12.7 18 16.3
2009-02-03 08:29:02 51°19.844 2°52.829 19.9 12.7 17 16.4
2009-02-03 08:29:07 51°19.861 2°52.837 20.1 12.6 18 16.4
2009-02-03 08:29:12 51°19.878 2°52.845 20 12.8 16 16.5
2009-02-03 08:29:17 51°19.895 2°52.854 20.1 12.8 18 16.8
2009-02-03 08:29:22 51°19.912 2°52.862 19.8 12.8 16 16.5
2009-02-03 08:29:27 51°19.929 2°52.87 19.2 12.7 17 16.5
2009-02-03 08:29:32 51°19.946 2°52.878 19 12.7 15 16.4
2009-02-03 08:29:37 51°19.963 2°52.886 18.8 12.6 17 16.5
2009-02-03 08:29:42 51°19.979 2°52.894 19.2 12.7 17 16.6
2009-02-03 08:29:47 51°19.996 2°52.902 19.3 12.8 17 16.7
2009-02-03 08:29:52 51°20.013 2°52.91 19.7 12.6 16 16.7
2009-02-03 08:29:57 51°20.03 2°52.918 19.8 12.7 18 16.6
2009-02-03 08:30:02 51°20.047 2°52.927 20.1 12.7 17 16.7
2009-02-03 08:30:06 51°20.061 2°52.933 19.1 12.7 16 16.7
2009-02-03 08:30:12 51°20.081 2°52.942 18.8 12.8 16 16.7
2009-02-03 08:30:17 51°20.098 2°52.95 19 12.8 17 16.8
2009-02-03 08:30:22 51°20.115 2°52.958 19.2 12.8 15 16.7
2009-02-03 08:30:27 51°20.132 2°52.966 19.1 12.8 17 16.8
2009-02-03 08:30:32 51°20.15 2°52.973 18.5 12.9 14 16.8
2009-02-03 08:30:37 51°20.166 2°52.981 17.8 12.8 15 17
2009-02-03 08:30:42 51°20.184 2°52.988 17.4 12.9 15 17
2009-02-03 08:30:47 51°20.201 2°52.995 16.6 12.8 13 16.7
2009-02-03 08:30:52 51°20.218 2°53.003 16.8 12.9 14 17
2009-02-03 08:30:57 51°20.236 2°53.009 16.4 12.9 14 16.9
2009-02-03 08:31:02 51°20.253 2°53.016 16.3 12.8 14 16.9
2009-02-03 08:31:07 51°20.27 2°53.023 16.2 12.9 14 16.9
2009-02-03 08:31:11 51°20.284 2°53.029 16.8 12.9 16 16.8
2009-02-03 08:31:17 51°20.305 2°53.038 17.4 12.9 16 16.9
2009-02-03 08:31:22 51°20.322 2°53.046 18.4 12.9 16 16.8
2009-02-03 08:31:27 51°20.339 2°53.054 18.6 12.9 15 16.9
2009-02-03 08:31:32 51°20.356 2°53.062 18 12.9 16 16.9
2009-02-03 08:31:37 51°20.374 2°53.069 17.5 13 14 17
2009-02-03 08:31:42 51°20.391 2°53.076 17 12.9 15 16.9
2009-02-03 08:31:47 51°20.408 2°53.083 16.4 12.9 14 17
2009-02-03 08:31:52 51°20.425 2°53.091 16.9 12.9 16 17
2009-02-03 08:31:57 51°20.443 2°53.099 17.9 13 16 16.9
2009-02-03 08:32:02 51°20.46 2°53.107 18.2 13.1 17 16.9
2009-02-03 08:32:07 51°20.478 2°53.115 18.4 13 16 17
2009-02-03 08:32:12 51°20.495 2°53.123 18.4 13 17 17
2009-02-03 08:32:17 51°20.512 2°53.131 19 13.1 16 17
2009-02-03 08:32:22 51°20.53 2°53.14 19.1 13.1 17 17
2009-02-03 08:32:26 51°20.544 2°53.146 19.4 13 17 17.1
2009-02-03 08:32:32 51°20.565 2°53.157 19.8 13 17 17
2009-02-03 08:32:37 51°20.582 2°53.166 19.8 13.1 18 17
2009-02-03 08:32:42 51°20.599 2°53.175 19.9 13.1 17 17.2
2009-02-03 08:32:47 51°20.617 2°53.184 19.9 13.2 18 17.1
2009-02-03 08:32:52 51°20.634 2°53.191 18.8 13.1 16 17
2009-02-03 08:32:57 51°20.652 2°53.199 18.5 13 16 17
2009-02-03 08:33:02 51°20.669 2°53.208 17.8 13.1 17 16.9
2009-02-03 08:33:07 51°20.686 2°53.215 17.5 13 14 16.9
2009-02-03 08:33:12 51°20.704 2°53.223 16.9 13.1 16 17.1
2009-02-03 08:33:17 51°20.721 2°53.23 16.7 13 14 17
2009-02-03 08:33:22 51°20.739 2°53.238 16.7 13.1 17 16.9
2009-02-03 08:33:26 51°20.753 2°53.244 17.4 13.2 15 17
2009-02-03 08:33:32 51°20.774 2°53.253 17.4 13.1 16 17.2
2009-02-03 08:33:37 51°20.792 2°53.262 17.7 13.1 17 17
2009-02-03 08:33:42 51°20.809 2°53.27 18.3 13.1 17 17
2009-02-03 08:33:47 51°20.826 2°53.279 19.1 13.2 17 17
2009-02-03 08:33:52 51°20.844 2°53.287 19.3 13.2 17 17
2009-02-03 08:33:57 51°20.862 2°53.297 19.1 13.3 17 17.2
2009-02-03 08:34:02 51°20.879 2°53.304 18.3 13.2 17 17.1
2009-02-03 08:34:07 51°20.897 2°53.312 17.7 13.1 15 17
2009-02-03 08:34:12 51°20.914 2°53.321 17.7 13.1 17 17.1
2009-02-03 08:34:17 51°20.932 2°53.328 17.7 13 15 17
2009-02-03 08:34:22 51°20.949 2°53.336 17.2 13.1 16 16.9
2009-02-03 08:34:26 51°20.963 2°53.343 17.7 13.1 16 17.1
2009-02-03 08:34:32 51°20.984 2°53.353 18.4 13 18 17
2009-02-03 08:34:37 51°21.001 2°53.361 18.9 12.9 17 17
2009-02-03 08:34:42 51°21.018 2°53.37 18.9 12.9 18 16.9
2009-02-03 08:34:47 51°21.035 2°53.378 19.3 12.9 17 17
2009-02-03 08:34:52 51°21.052 2°53.387 19.4 12.9 18 17.1
2009-02-03 08:34:57 51°21.069 2°53.395 19.6 12.8 17 17.2
2009-02-03 08:35:02 51°21.086 2°53.403 19.1 12.8 17 17.1
2009-02-03 08:35:07 51°21.103 2°53.412 19.1 12.8 17 17.1
2009-02-03 08:35:12 51°21.12 2°53.42 19 12.8 17 17.1
2009-02-03 08:35:17 51°21.137 2°53.429 19.2 12.8 17 16.9
2009-02-03 08:35:22 51°21.153 2°53.437 19.3 12.7 18 17
2009-02-03 08:35:27 51°21.17 2°53.445 19.4 12.7 17 16.7
2009-02-03 08:35:31 51°21.184 2°53.452 19.1 12.6 18 16.7
2009-02-03 08:35:37 51°21.204 2°53.462 19.7 12.6 18 16.6
2009-02-03 08:35:42 51°21.221 2°53.471 19.9 12.7 18 16.6
2009-02-03 08:35:47 51°21.237 2°53.479 19.8 12.6 18 16.9
2009-02-03 08:35:52 51°21.254 2°53.487 19.2 12.6 17 16.9
2009-02-03 08:35:57 51°21.271 2°53.496 19.4 12.7 16 17
2009-02-03 08:36:02 51°21.288 2°53.504 19.1 12.7 17 17.3
2009-02-03 08:36:07 51°21.304 2°53.512 18.8 12.7 16 17.1
2009-02-03 08:36:12 51°21.321 2°53.52 19.4 12.7 17 16.9
2009-02-03 08:36:17 51°21.337 2°53.529 19.4 12.6 18 17
2009-02-03 08:36:22 51°21.354 2°53.537 19.2 12.7 17 17.1
2009-02-03 08:36:27 51°21.371 2°53.546 19.7 12.6 18 17
2009-02-03 08:36:32 51°21.388 2°53.553 19.4 12.6 17 16.9
2009-02-03 08:36:37 51°21.404 2°53.562 19.1 12.7 17 17
2009-02-03 08:36:42 51°21.421 2°53.569 18.6 12.7 17 17.1
2009-02-03 08:36:47 51°21.438 2°53.578 19.1 12.7 17 17.2
2009-02-03 08:36:52 51°21.455 2°53.586 19 12.7 15 17.1
2009-02-03 08:36:57 51°21.472 2°53.593 17.7 12.7 16 17.3
2009-02-03 08:37:02 51°21.489 2°53.601 17.5 12.6 15 17.1
2009-02-03 08:37:07 51°21.505 2°53.608 17.7 12.5 16 17
2009-02-03 08:37:12 51°21.522 2°53.616 18.2 12.5 18 17
2009-02-03 08:37:17 51°21.538 2°53.626 20.3 12.4 20 17
2009-02-03 08:37:22 51°21.555 2°53.634 21.1 12.4 18 17.1
2009-02-03 08:37:27 51°21.571 2°53.646 23.1 12.5 24 17.1
2009-02-03 08:37:32 51°21.587 2°53.656 24.6 12.5 22 17.2
2009-02-03 08:37:37 51°21.603 2°53.667 25.9 12.5 25 17.2
2009-02-03 08:37:42 51°21.618 2°53.679 27.5 12.6 24 17.2
2009-02-03 08:37:47 51°21.634 2°53.692 28.2 12.6 27 17.4
2009-02-03 08:37:52 51°21.649 2°53.704 28.7 12.6 27 17.3
2009-02-03 08:37:57 51°21.665 2°53.717 29 12.5 27 17.5
2009-02-03 08:38:02 51°21.681 2°53.729 29.8 12.6 28 17.5
2009-02-03 08:38:07 51°21.696 2°53.742 29.8 12.5 26 17.5
2009-02-03 08:38:12 51°21.711 2°53.754 29.6 12.4 29 17.7
2009-02-03 08:38:17 51°21.727 2°53.767 30.2 12.5 27 17.7
2009-02-03 08:38:22 51°21.742 2°53.78 29.9 12.4 28 17.6
2009-02-03 08:38:27 51°21.757 2°53.792 29.8 12.4 27 17.9
2009-02-03 08:38:32 51°21.773 2°53.805 29.6 12.5 28 18.1
2009-02-03 08:38:37 51°21.788 2°53.818 29.8 12.5 27 18.2
2009-02-03 08:38:42 51°21.803 2°53.831 30.6 12.4 28 18.4
2009-02-03 08:38:47 51°21.819 2°53.843 30.4 12.4 26 18.5
2009-02-03 08:38:52 51°21.835 2°53.851 25.4 12.4 18 18.5
2009-02-03 08:38:57 51°21.851 2°53.861 22.8 12.4 20 18.4
2009-02-03 08:39:02 51°21.868 2°53.868 20.9 12.5 15 18.7
2009-02-03 08:39:06 51°21.881 2°53.874 17.5 12.5 14 19.1
2009-02-03 08:39:12 51°21.901 2°53.879 14.3 12.4 9 19
2009-02-03 08:39:17 51°21.918 2°53.884 12.2 12.5 9 19.3
2009-02-03 08:39:22 51°21.936 2°53.887 10.3 12.5 5 19.4
2009-02-03 08:39:27 51°21.953 2°53.89 7.7 12.4 6 19.6
2009-02-03 08:39:32 51°21.97 2°53.89 6.4 12.6 -999 19.8
2009-02-03 08:39:37 51°21.988 2°53.891 3.6 12.5 1 19.9
2009-02-03 08:39:42 51°22.005 2°53.89 2.4 12.6 358 19.9
2009-02-03 08:39:47 51°22.023 2°53.889 0.5 12.6 359 19.8
2009-02-03 08:39:52 51°22.04 2°53.888 359.5 12.6 357 19.9
2009-02-03 08:39:57 51°22.057 2°53.886 358.6 12.6 357 19.6
2009-02-03 08:40:02 51°22.075 2°53.884 358 12.6 357 19.6
2009-02-03 08:40:07 51°22.092 2°53.883 357.8 12.7 357 19.5
2009-02-03 08:40:12 51°22.11 2°53.881 357.5 12.6 356 19.5
2009-02-03 08:40:17 51°22.127 2°53.879 357.1 12.6 355 19.6
2009-02-03 08:40:22 51°22.145 2°53.877 356.6 12.7 355 19.7
2009-02-03 08:40:27 51°22.162 2°53.875 356.1 12.6 356 19.9
2009-02-03 08:40:32 51°22.18 2°53.873 356.1 12.5 356 19.8
2009-02-03 08:40:37 51°22.197 2°53.871 356.6 12.5 356 19.9
2009-02-03 08:40:42 51°22.214 2°53.868 356.4 12.6 355 20.3
2009-02-03 08:40:47 51°22.232 2°53.867 356.9 12.6 358 20.6
2009-02-03 08:40:52 51°22.249 2°53.865 358.2 12.5 357 20.7
2009-02-03 08:40:57 51°22.267 2°53.864 358.5 12.6 356 21
2009-02-03 08:41:02 51°22.284 2°53.862 357.8 12.5 357 21.1
2009-02-03 08:41:06 51°22.298 2°53.861 357.3 12.5 356 21.2
2009-02-03 08:41:12 51°22.319 2°53.859 357.4 12.5 357 21.1
2009-02-03 08:41:18 51°22.34 2°53.857 357.8 12.6 357 21.4
2009-02-03 08:41:22 51°22.353 2°53.856 358.8 12.7 357 21.7
2009-02-03 08:41:27 51°22.371 2°53.856 359.3 12.6 359 22.1
2009-02-03 08:41:32 51°22.389 2°53.855 359.6 12.7 358 22.1
2009-02-03 08:41:37 51°22.406 2°53.854 -999 12.6 359 22.2
2009-02-03 08:41:42 51°22.424 2°53.854 0.3 12.6 -999 22.4
2009-02-03 08:41:47 51°22.441 2°53.854 1.1 12.7 359 22.6
2009-02-03 08:41:52 51°22.459 2°53.853 0.7 12.6 358 22.9
2009-02-03 08:41:57 51°22.476 2°53.853 359.6 12.8 358 23.1
2009-02-03 08:42:02 51°22.494 2°53.852 359.6 12.7 359 23.4
2009-02-03 08:42:07 51°22.512 2°53.851 359.5 12.7 358 23.3
2009-02-03 08:42:11 51°22.526 2°53.851 359.5 12.8 -999 23.3
2009-02-03 08:42:17 51°22.547 2°53.851 0.5 12.8 -999 23.7
2009-02-03 08:42:22 51°22.565 2°53.85 0.3 12.7 359 23.3
2009-02-03 08:42:27 51°22.583 2°53.85 359.7 12.7 359 23.6
2009-02-03 08:42:32 51°22.6 2°53.849 359.4 12.7 359 23.6
2009-02-03 08:42:37 51°22.618 2°53.849 359.1 12.8 359 23.5
2009-02-03 08:42:42 51°22.636 2°53.848 359.1 12.9 -999 23.4
2009-02-03 08:42:47 51°22.654 2°53.848 359.2 12.9 -999 23.2
2009-02-03 08:42:52 51°22.672 2°53.849 359.6 12.9 1 23.2
2009-02-03 08:42:57 51°22.69 2°53.849 0.5 13 1 23.3
2009-02-03 08:43:02 51°22.708 2°53.85 1.4 12.9 2 23.3
2009-02-03 08:43:07 51°22.725 2°53.851 1.5 12.9 2 23.1
2009-02-03 08:43:12 51°22.743 2°53.853 2.3 12.9 2 23.4
2009-02-03 08:43:17 51°22.761 2°53.855 2.9 12.9 4 23.3
2009-02-03 08:43:22 51°22.779 2°53.857 3.9 12.9 4 23.5
2009-02-03 08:43:27 51°22.797 2°53.859 4.5 13 5 23.3
2009-02-03 08:43:31 51°22.812 2°53.861 4.6 13 5 23.1
2009-02-03 08:43:37 51°22.833 2°53.864 4.6 13.1 4 22.8
2009-02-03 08:43:42 51°22.851 2°53.866 4.6 12.9 5 22.7
2009-02-03 08:43:47 51°22.869 2°53.868 5.6 12.9 5 21.7
2009-02-03 08:43:52 51°22.887 2°53.87 4.6 12.9 5 21.7
2009-02-03 08:43:57 51°22.905 2°53.873 5.2 12.9 6 22.3
2009-02-03 08:44:02 51°22.923 2°53.875 5.4 13 5 21.4
2009-02-03 08:44:07 51°22.941 2°53.879 5.3 13 6 18.2
2009-02-03 08:44:12 51°22.958 2°53.881 5.7 12.9 4 21.4
2009-02-03 08:44:18 51°22.98 2°53.884 5.3 12.9 6 21.5
2009-02-03 08:44:22 51°22.994 2°53.885 5.4 12.9 2 19.1
2009-02-03 08:44:27 51°23.012 2°53.888 4.7 12.9 7 22.3
2009-02-03 08:44:32 51°23.03 2°53.89 5.4 12.9 3 22.9
2009-02-03 08:44:38 51°23.051 2°53.894 5 13 7 22.4
2009-02-03 08:44:42 51°23.065 2°53.894 5.3 12.9 3 22.1
2009-02-03 08:44:47 51°23.083 2°53.897 4.9 12.9 4 22.5
2009-02-03 08:44:52 51°23.101 2°53.898 4.3 12.8 4 21.8
2009-02-03 08:44:58 51°23.123 2°53.901 5 12.9 4 19.8
2009-02-03 08:45:02 51°23.137 2°53.903 5.3 12.9 5 22
2009-02-03 08:45:07 51°23.154 2°53.905 5 12.9 4 22.8
2009-02-03 08:45:12 51°23.172 2°53.907 4.6 12.9 4 22.3
2009-02-03 08:45:17 51°23.19 2°53.909 4.1 12.9 4 21.9
2009-02-03 08:45:22 51°23.208 2°53.912 4.5 12.9 5 20.9
2009-02-03 08:45:27 51°23.226 2°53.913 4.7 13 4 20.2
2009-02-03 08:45:32 51°23.244 2°53.915 4.5 12.9 5 21.4
2009-02-03 08:45:38 51°23.265 2°53.918 4.8 12.9 4 21.5
2009-02-03 08:45:42 51°23.28 2°53.92 5.1 13 5 21.4
2009-02-03 08:45:47 51°23.298 2°53.922 5.3 13 5 20.8
2009-02-03 08:45:52 51°23.315 2°53.924 5.2 12.8 4 19.6
2009-02-03 08:45:58 51°23.337 2°53.927 4.8 12.9 5 21.1
2009-02-03 08:46:02 51°23.351 2°53.928 4.6 12.9 4 20.9
2009-02-03 08:46:06 51°23.365 2°53.93 4.9 12.8 4 20.8
2009-02-03 08:46:12 51°23.387 2°53.932 4.5 12.9 4 21
2009-02-03 08:46:18 51°23.408 2°53.934 4.6 12.8 3 20.8
2009-02-03 08:46:22 51°23.422 2°53.934 3.9 12.8 2 20.4
2009-02-03 08:46:27 51°23.44 2°53.937 3.8 12.8 4 20
2009-02-03 08:46:32 51°23.457 2°53.938 4 12.8 3 19.4
2009-02-03 08:46:37 51°23.475 2°53.941 4.6 12.7 7 20.8
2009-02-03 08:46:42 51°23.493 2°53.942 5.5 12.8 2 20.9
2009-02-03 08:46:47 51°23.51 2°53.945 4.8 12.8 6 21.2
2009-02-03 08:46:52 51°23.528 2°53.946 5.7 12.8 3 21.1
2009-02-03 08:46:57 51°23.546 2°53.949 5.4 12.8 6 21
2009-02-03 08:47:02 51°23.564 2°53.951 5.7 12.8 5 20.6
2009-02-03 08:47:07 51°23.581 2°53.954 6.7 12.9 6 19.7
2009-02-03 08:47:12 51°23.599 2°53.957 7.4 12.9 5 18.5
2009-02-03 08:47:17 51°23.617 2°53.96 6.7 12.9 7 21.1
2009-02-03 08:47:22 51°23.634 2°53.963 7.1 12.9 6 21
2009-02-03 08:47:26 51°23.648 2°53.966 8.1 12.9 7 20.5
2009-02-03 08:47:32 51°23.67 2°53.969 7.4 12.8 5 20.6
2009-02-03 08:47:37 51°23.687 2°53.972 7 12.8 7 19.7
2009-02-03 08:47:42 51°23.705 2°53.975 7.4 12.8 6 18.7
2009-02-03 08:47:47 51°23.723 2°53.979 7.8 12.8 7 17.5
2009-02-03 08:47:52 51°23.74 2°53.981 7.9 12.7 6 20.2
2009-02-03 08:47:57 51°23.758 2°53.985 7.9 12.8 7 21.2
2009-02-03 08:48:02 51°23.776 2°53.988 8.3 12.8 7 21.5
2009-02-03 08:48:07 51°23.793 2°53.992 8.4 12.8 7 21.5
2009-02-03 08:48:12 51°23.811 2°53.996 8.9 12.8 7 21.7
2009-02-03 08:48:17 51°23.828 2°53.999 8.7 12.8 7 21.5
2009-02-03 08:48:22 51°23.846 2°54.003 8.7 12.9 6 21.5
2009-02-03 08:48:27 51°23.864 2°54.006 8.3 12.7 7 21.7
2009-02-03 08:48:31 51°23.878 2°54.008 7.8 12.9 4 21.9
2009-02-03 08:48:37 51°23.899 2°54.011 6.5 12.8 6 21.9
2009-02-03 08:48:42 51°23.917 2°54.013 6.3 12.8 5 22
2009-02-03 08:48:47 51°23.934 2°54.017 6.9 12.8 6 22.1
2009-02-03 08:48:52 51°23.952 2°54.02 7.5 12.8 7 21.7
2009-02-03 08:48:57 51°23.97 2°54.023 8.1 12.7 7 21.6
2009-02-03 08:49:02 51°23.987 2°54.026 7.9 12.8 5 21.9
2009-02-03 08:49:07 51°24.005 2°54.029 7.4 12.8 6 22.1
2009-02-03 08:49:12 51°24.023 2°54.031 6.3 12.7 4 21.9
2009-02-03 08:49:17 51°24.04 2°54.034 5.9 12.7 5 21.8
2009-02-03 08:49:22 51°24.058 2°54.035 5.4 12.7 3 21.9
2009-02-03 08:49:27 51°24.075 2°54.038 5.5 12.7 5 22.3
2009-02-03 08:49:32 51°24.093 2°54.039 5.3 12.6 3 22.2
2009-02-03 08:49:37 51°24.11 2°54.042 5.6 12.6 6 22.6
2009-02-03 08:49:42 51°24.128 2°54.044 6.1 12.6 4 22.3
2009-02-03 08:49:47 51°24.145 2°54.046 5.7 12.7 4 21.7
2009-02-03 08:49:52 51°24.163 2°54.048 6 12.7 5 21.3
2009-02-03 08:49:57 51°24.181 2°54.05 5.7 12.7 5 22.3
2009-02-03 08:50:02 51°24.198 2°54.053 6.2 12.6 6 22.4
2009-02-03 08:50:07 51°24.216 2°54.057 7.5 12.7 7 22.5
2009-02-03 08:50:12 51°24.233 2°54.059 7.6 12.7 5 22
2009-02-03 08:50:17 51°24.251 2°54.062 7.7 12.7 7 22.1
2009-02-03 08:50:22 51°24.268 2°54.065 8.3 12.7 7 21.9
2009-02-03 08:50:27 51°24.286 2°54.069 9.1 12.6 7 21.6
2009-02-03 08:50:32 51°24.303 2°54.072 8.3 12.7 8 20.2
2009-02-03 08:50:37 51°24.321 2°54.076 9 12.8 7 21
2009-02-03 08:50:42 51°24.338 2°54.079 8.9 12.7 8 21.2
2009-02-03 08:50:46 51°24.352 2°54.082 8.9 12.8 6 21.1
2009-02-03 08:50:52 51°24.374 2°54.086 8.7 12.7 8 20.5
2009-02-03 08:50:57 51°24.391 2°54.088 8.5 12.7 5 18.1
2009-02-03 08:51:02 51°24.408 2°54.093 8.6 12.7 8 18.2
2009-02-03 08:51:07 51°24.426 2°54.095 8.4 12.7 6 19.1
2009-02-03 08:51:12 51°24.444 2°54.098 8.2 12.8 6 19.2
2009-02-03 08:51:17 51°24.461 2°54.102 8.5 12.8 6 19.4
2009-02-03 08:51:22 51°24.479 2°54.105 8 12.7 6 19.3
2009-02-03 08:51:27 51°24.496 2°54.108 8.2 12.8 7 18.6
2009-02-03 08:51:32 51°24.514 2°54.111 7.8 12.8 6 16.1
2009-02-03 08:51:37 51°24.532 2°54.114 8 12.8 7 17.6
2009-02-03 08:51:42 51°24.549 2°54.117 8.1 12.8 6 18.1
2009-02-03 08:51:47 51°24.567 2°54.119 7.8 12.8 6 18
2009-02-03 08:51:51 51°24.581 2°54.122 8.3 12.7 6 18
2009-02-03 08:51:57 51°24.602 2°54.125 7.5 12.7 5 18.1
2009-02-03 08:52:02 51°24.62 2°54.128 7 12.7 4 17.9
2009-02-03 08:52:07 51°24.637 2°54.129 5.7 12.7 3 17.9
2009-02-03 08:52:12 51°24.655 2°54.132 6.1 12.8 4 17.2
2009-02-03 08:52:17 51°24.673 2°54.133 5.5 12.7 3 18
2009-02-03 08:52:22 51°24.69 2°54.135 5.3 12.7 4 17.7
2009-02-03 08:52:27 51°24.708 2°54.137 6 12.6 5 16.4
2009-02-03 08:52:32 51°24.725 2°54.139 6.4 12.6 4 17.7
2009-02-03 08:52:37 51°24.743 2°54.141 6 12.7 4 18.1
2009-02-03 08:52:42 51°24.76 2°54.143 5.6 12.7 4 17.8
2009-02-03 08:52:47 51°24.778 2°54.144 5.3 12.7 3 17.7
2009-02-03 08:52:52 51°24.795 2°54.146 5.3 12.7 3 17.9
2009-02-03 08:52:58 51°24.817 2°54.148 5.4 12.7 4 18.5
2009-02-03 08:53:02 51°24.831 2°54.15 5.3 12.7 4 18.8
2009-02-03 08:53:07 51°24.848 2°54.152 6.1 12.8 4 19.1
2009-02-03 08:53:12 51°24.866 2°54.154 6 12.9 4 19.6
2009-02-03 08:53:18 51°24.887 2°54.156 5.9 12.8 3 19.6
2009-02-03 08:53:22 51°24.901 2°54.159 6.8 12.7 6 18.4
2009-02-03 08:53:27 51°24.919 2°54.161 6.8 12.7 5 18.7
2009-02-03 08:53:32 51°24.937 2°54.163 6.1 12.8 4 19.8
2009-02-03 08:53:38 51°24.958 2°54.166 7 12.8 6 20.1
2009-02-03 08:53:42 51°24.972 2°54.169 7.3 12.9 6 20.3
2009-02-03 08:53:47 51°24.99 2°54.172 8.1 12.8 6 21.2
2009-02-03 08:53:52 51°25.007 2°54.175 8.5 12.8 7 21.2
2009-02-03 08:53:58 51°25.029 2°54.178 7.7 13 4 21.1
2009-02-03 08:54:02 51°25.043 2°54.18 7.1 12.8 7 20.8
2009-02-03 08:54:07 51°25.061 2°54.183 7.8 12.8 6 20.9
2009-02-03 08:54:12 51°25.078 2°54.186 7.7 12.8 7 21
2009-02-03 08:54:18 51°25.1 2°54.191 8.3 12.8 8 21.4
2009-02-03 08:54:22 51°25.114 2°54.193 8.4 12.9 7 21.5
2009-02-03 08:54:26 51°25.128 2°54.196 8.5 12.9 7 21.7
2009-02-03 08:54:32 51°25.149 2°54.2 8.7 12.9 7 21.9
2009-02-03 08:54:38 51°25.171 2°54.204 8.3 12.9 7 22
2009-02-03 08:54:42 51°25.185 2°54.206 8 12.9 6 22.1
2009-02-03 08:54:47 51°25.203 2°54.209 7.1 12.9 6 21.9
2009-02-03 08:54:52 51°25.221 2°54.211 6.8 12.8 4 21.7
2009-02-03 08:54:57 51°25.238 2°54.214 6.5 12.8 6 21.7
2009-02-03 08:55:02 51°25.256 2°54.216 6.7 12.7 6 21.6
2009-02-03 08:55:07 51°25.274 2°54.22 7.3 12.7 6 21.8
2009-02-03 08:55:12 51°25.291 2°54.222 7.7 12.7 6 21.6
2009-02-03 08:55:17 51°25.309 2°54.225 7.5 12.7 5 21.6
2009-02-03 08:55:22 51°25.326 2°54.228 6.9 12.8 7 21.6
2009-02-03 08:55:27 51°25.344 2°54.23 7.4 12.8 5 21.5
2009-02-03 08:55:32 51°25.362 2°54.233 7.1 12.8 7 21.4
2009-02-03 08:55:37 51°25.379 2°54.236 7.7 12.7 6 21.3
2009-02-03 08:55:42 51°25.397 2°54.24 8.3 12.7 7 20.1
2009-02-03 08:55:46 51°25.411 2°54.242 8.6 12.6 6 20.2
2009-02-03 08:55:52 51°25.431 2°54.246 8.9 12.6 7 20.7
2009-02-03 08:55:57 51°25.449 2°54.25 8.6 12.6 7 21.1
2009-02-03 08:56:02 51°25.466 2°54.253 8.8 12.6 7 21.4
2009-02-03 08:56:07 51°25.484 2°54.257 8.9 12.6 7 21.4
2009-02-03 08:56:12 51°25.501 2°54.26 8.2 12.7 7 20.8
2009-02-03 08:56:17 51°25.519 2°54.263 8.5 12.6 8 21
2009-02-03 08:56:22 51°25.536 2°54.267 9 12.6 6 21.2
2009-02-03 08:56:27 51°25.553 2°54.27 8.6 12.6 7 21.3
2009-02-03 08:56:32 51°25.571 2°54.273 8.4 12.7 5 21.7
2009-02-03 08:56:37 51°25.588 2°54.276 7.8 12.7 6 21.9
2009-02-03 08:56:42 51°25.606 2°54.279 8.1 12.7 5 22.2
2009-02-03 08:56:46 51°25.62 2°54.28 7.6 12.7 5 22.5
2009-02-03 08:56:52 51°25.641 2°54.284 7.5 12.7 6 22.5
2009-02-03 08:56:57 51°25.658 2°54.287 7.7 12.7 6 22.3
2009-02-03 08:57:02 51°25.676 2°54.29 8 12.7 5 22.7
2009-02-03 08:57:07 51°25.693 2°54.293 7.8 12.6 6 22.9
2009-02-03 08:57:12 51°25.711 2°54.295 8 12.6 5 23
2009-02-03 08:57:17 51°25.728 2°54.298 7.8 12.7 6 23
2009-02-03 08:57:22 51°25.746 2°54.3 6.9 12.8 4 23
2009-02-03 08:57:27 51°25.764 2°54.302 5.9 12.8 4 23.3
2009-02-03 08:57:32 51°25.782 2°54.304 6.1 12.8 4 23.2
2009-02-03 08:57:37 51°25.799 2°54.307 5.9 12.9 5 23.2
2009-02-03 08:57:42 51°25.817 2°54.309 6.4 12.8 5 23.3
2009-02-03 08:57:47 51°25.835 2°54.312 6.9 12.8 5 22.4
2009-02-03 08:57:51 51°25.849 2°54.315 7.5 12.8 5 23.4
2009-02-03 08:57:57 51°25.87 2°54.317 7.1 12.8 6 23.5
2009-02-03 08:58:02 51°25.888 2°54.321 7.2 12.9 6 23.5
2009-02-03 08:58:07 51°25.906 2°54.323 7.6 12.9 6 23.4
2009-02-03 08:58:12 51°25.923 2°54.327 8.3 12.9 6 22.9
2009-02-03 08:58:17 51°25.941 2°54.33 8 12.9 7 21.9
2009-02-03 08:58:22 51°25.959 2°54.333 7.8 12.9 7 23.5
2009-02-03 08:58:27 51°25.977 2°54.337 8.7 12.8 7 23.6
2009-02-03 08:58:32 51°25.994 2°54.34 8.6 12.7 7 23.5
2009-02-03 08:58:37 51°26.012 2°54.344 8.2 12.7 6 23.6
2009-02-03 08:58:42 51°26.029 2°54.346 7.5 12.8 5 23.4
2009-02-03 08:58:47 51°26.047 2°54.349 7.1 12.8 6 22.9
2009-02-03 08:58:52 51°26.064 2°54.352 7.1 12.8 6 22.7
2009-02-03 08:58:57 51°26.082 2°54.355 7.2 12.8 5 23.8
2009-02-03 08:59:02 51°26.1 2°54.358 6.9 12.8 7 23.7
2009-02-03 08:59:06 51°26.114 2°54.36 6.9 12.8 5 23
2009-02-03 08:59:12 51°26.135 2°54.364 7.1 12.8 6 21.5
2009-02-03 08:59:17 51°26.153 2°54.367 7.4 12.8 7 22.5
2009-02-03 08:59:22 51°26.17 2°54.37 7.9 12.8 6 23.6
2009-02-03 08:59:27 51°26.188 2°54.373 7.6 12.8 6 24.1
2009-02-03 08:59:32 51°26.205 2°54.376 7.8 12.8 6 24.2
2009-02-03 08:59:37 51°26.223 2°54.379 7.5 12.8 7 24.4
2009-02-03 08:59:42 51°26.241 2°54.382 7.5 12.7 5 24.2
2009-02-03 08:59:47 51°26.258 2°54.385 7.2 12.7 6 23.9
2009-02-03 08:59:52 51°26.276 2°54.388 7.3 12.8 5 23.7
2009-02-03 08:59:57 51°26.293 2°54.391 7.3 12.7 5 23.5
2009-02-03 09:00:02 51°26.311 2°54.393 6.7 12.6 6 23.4
2009-02-03 09:00:07 51°26.328 2°54.396 7.4 12.6 6 23
2009-02-03 09:00:11 51°26.342 2°54.398 7.2 12.6 6 23.9
2009-02-03 09:00:17 51°26.363 2°54.402 7.4 12.7 4 24
2009-02-03 09:00:22 51°26.381 2°54.403 6.7 12.7 5 24.1
2009-02-03 09:00:27 51°26.399 2°54.406 7.1 12.8 6 24.1
2009-02-03 09:00:32 51°26.416 2°54.408 6.9 12.7 5 24.4
2009-02-03 09:00:37 51°26.434 2°54.411 6.4 12.8 4 24.7
2009-02-03 09:00:42 51°26.451 2°54.413 6.8 12.8 5 25.5
2009-02-03 09:00:47 51°26.469 2°54.415 6 12.7 3 25.6
2009-02-03 09:00:52 51°26.486 2°54.418 6.4 12.6 6 25.6
2009-02-03 09:00:57 51°26.504 2°54.42 7.1 12.6 5 25.6
2009-02-03 09:01:02 51°26.521 2°54.423 6.8 12.6 5 25.6
2009-02-03 09:01:07 51°26.539 2°54.425 7 12.6 5 25.9
2009-02-03 09:01:12 51°26.556 2°54.428 7.3 12.7 5 25.9
2009-02-03 09:01:17 51°26.574 2°54.43 6.8 12.6 5 26
2009-02-03 09:01:22 51°26.591 2°54.433 6.4 12.6 4 25.8
2009-02-03 09:01:27 51°26.609 2°54.435 6 12.7 5 25.3
2009-02-03 09:01:32 51°26.626 2°54.437 6.1 12.7 5 25.1
2009-02-03 09:01:37 51°26.644 2°54.44 6.6 12.7 5 24.9
2009-02-03 09:01:42 51°26.661 2°54.442 6.8 12.7 6 24.5
2009-02-03 09:01:47 51°26.679 2°54.444 6.6 12.7 4 24.2
2009-02-03 09:01:52 51°26.697 2°54.447 6.1 12.8 5 23.6
2009-02-03 09:01:57 51°26.714 2°54.448 6.1 12.8 3 22.9
2009-02-03 09:02:02 51°26.732 2°54.452 6.7 12.8 6 20.3
2009-02-03 09:02:07 51°26.75 2°54.454 7 12.8 5 21.8
2009-02-03 09:02:12 51°26.768 2°54.458 7.5 12.9 7 22.3
2009-02-03 09:02:17 51°26.785 2°54.46 8.1 12.8 5 22.7
2009-02-03 09:02:22 51°26.803 2°54.464 7.8 12.9 6 22.7
2009-02-03 09:02:26 51°26.817 2°54.465 6.9 12.8 4 23.6
2009-02-03 09:02:32 51°26.839 2°54.468 6.2 12.9 6 24.2
2009-02-03 09:02:37 51°26.856 2°54.471 6.7 12.9 5 24.6
2009-02-03 09:02:42 51°26.874 2°54.473 5.8 12.9 6 24.8
2009-02-03 09:02:47 51°26.892 2°54.476 6.4 12.8 5 25
2009-02-03 09:02:52 51°26.91 2°54.479 6.7 12.9 5 25.4
2009-02-03 09:02:57 51°26.928 2°54.48 6.1 13 4 26
2009-02-03 09:03:02 51°26.946 2°54.483 6 12.9 5 26.3
2009-02-03 09:03:07 51°26.964 2°54.485 5.9 12.9 4 26.6
2009-02-03 09:03:12 51°26.982 2°54.488 5.5 13 5 26.8
2009-02-03 09:03:17 51°27 2°54.489 5.5 12.9 4 26.9
2009-02-03 09:03:22 51°27.017 2°54.492 6.1 12.8 5 27.2
2009-02-03 09:03:27 51°27.035 2°54.494 5.9 12.9 4 27.7
2009-02-03 09:03:31 51°27.049 2°54.497 5.9 12.9 5 27.9
2009-02-03 09:03:37 51°27.071 2°54.499 5.9 13 4 28
2009-02-03 09:03:42 51°27.089 2°54.502 6.2 13 6 28.3
2009-02-03 09:03:47 51°27.106 2°54.505 6.6 12.9 5 28.5
2009-02-03 09:03:52 51°27.124 2°54.508 7.3 13 6 28.8
2009-02-03 09:03:57 51°27.142 2°54.511 7.5 13 7 29.2
2009-02-03 09:04:02 51°27.16 2°54.514 7.8 12.9 5 29.4
2009-02-03 09:04:07 51°27.178 2°54.517 6.7 13 5 29.4
2009-02-03 09:04:12 51°27.196 2°54.52 7.2 13.1 6 29.4
2009-02-03 09:04:17 51°27.214 2°54.523 6.8 13 5 28.8
2009-02-03 09:04:22 51°27.232 2°54.526 6.8 13 5 28.4
2009-02-03 09:04:27 51°27.249 2°54.529 7.2 12.9 6 28.8
2009-02-03 09:04:32 51°27.267 2°54.531 6.8 13 4 29
2009-02-03 09:04:37 51°27.285 2°54.533 5.7 12.9 4 29.3
2009-02-03 09:04:42 51°27.303 2°54.536 5.7 13 4 29.7
2009-02-03 09:04:47 51°27.321 2°54.538 5.5 13 4 29.7
2009-02-03 09:04:52 51°27.339 2°54.54 5 13 4 29.6
2009-02-03 09:04:57 51°27.357 2°54.542 5.4 13 5 29.6
2009-02-03 09:05:02 51°27.375 2°54.544 5 13 4 29
2009-02-03 09:05:07 51°27.393 2°54.546 5.3 13.1 4 28.9
2009-02-03 09:05:12 51°27.411 2°54.548 5.4 13.2 4 29.2
2009-02-03 09:05:17 51°27.43 2°54.55 5.3 13.2 4 29.4
2009-02-03 09:05:22 51°27.448 2°54.552 5.3 13.2 4 29.1
2009-02-03 09:05:27 51°27.466 2°54.555 5.9 13.3 4 28.8
2009-02-03 09:05:32 51°27.484 2°54.557 5.4 13.1 5 28.5
2009-02-03 09:05:37 51°27.502 2°54.559 5.7 13 4 28.1
2009-02-03 09:05:42 51°27.52 2°54.561 4.8 13.1 4 28.6
2009-02-03 09:05:46 51°27.535 2°54.563 4.4 13 4 28.6
2009-02-03 09:05:52 51°27.556 2°54.564 4 13 3 28.6
2009-02-03 09:05:57 51°27.574 2°54.567 4.6 13.1 5 28.1
2009-02-03 09:06:02 51°27.592 2°54.568 4.6 13 3 27.9
2009-02-03 09:06:07 51°27.61 2°54.571 4.6 13.1 5 27.8
2009-02-03 09:06:12 51°27.629 2°54.573 4.7 13.1 4 28.1
2009-02-03 09:06:17 51°27.647 2°54.575 5.1 13.1 5 27.5
2009-02-03 09:06:22 51°27.665 2°54.577 5.4 13 3 26.7
2009-02-03 09:06:27 51°27.683 2°54.579 4.2 13 4 27.9
2009-02-03 09:06:32 51°27.701 2°54.581 4.6 12.9 4 25.8
2009-02-03 09:06:37 51°27.719 2°54.582 3.8 13 3 26.7
2009-02-03 09:06:42 51°27.737 2°54.583 3.9 13.1 2 27.3
2009-02-03 09:06:47 51°27.755 2°54.585 3.7 13 3 26.3
2009-02-03 09:06:51 51°27.769 2°54.585 3.9 13 3 25
2009-02-03 09:06:57 51°27.791 2°54.587 3.6 13 2 26.2
2009-02-03 09:07:02 51°27.809 2°54.588 3 13 2 26.3
2009-02-03 09:07:07 51°27.827 2°54.589 2.8 12.9 2 26.3
2009-02-03 09:07:12 51°27.845 2°54.589 2.2 13 1 25.9
2009-02-03 09:07:17 51°27.863 2°54.59 2 12.9 2 24.6
2009-02-03 09:07:22 51°27.881 2°54.59 2.6 13 -999 23.5
2009-02-03 09:07:27 51°27.899 2°54.591 2.1 13 2 24.6
2009-02-03 09:07:32 51°27.917 2°54.593 2.6 12.9 4 24.5
2009-02-03 09:07:37 51°27.935 2°54.595 4.2 12.9 4 24.6
2009-02-03 09:07:42 51°27.953 2°54.598 6.1 12.9 5 22.7
2009-02-03 09:07:47 51°27.971 2°54.601 6.8 12.8 6 22.6
2009-02-03 09:07:52 51°27.988 2°54.604 7.7 12.9 7 22.8
2009-02-03 09:07:57 51°28.006 2°54.608 8.8 12.8 8 20.4
2009-02-03 09:08:02 51°28.023 2°54.612 9.4 12.7 10 22.1
2009-02-03 09:08:07 51°28.041 2°54.615 9.7 12.7 6 22.5
2009-02-03 09:08:12 51°28.058 2°54.62 9.5 12.7 10 22.5
2009-02-03 09:08:17 51°28.076 2°54.623 10 12.7 8 21.9
2009-02-03 09:08:22 51°28.093 2°54.629 10.5 12.8 10 21.4
2009-02-03 09:08:27 51°28.11 2°54.632 10.4 12.7 7 21.8
2009-02-03 09:08:32 51°28.128 2°54.637 10.3 12.6 10 20.6
2009-02-03 09:08:37 51°28.145 2°54.641 10.4 12.6 9 21
2009-02-03 09:08:42 51°28.162 2°54.646 11.9 12.5 11 21.2
2009-02-03 09:08:47 51°28.18 2°54.65 11.6 12.7 7 20.5
2009-02-03 09:08:52 51°28.197 2°54.655 11.5 12.7 10 20.1
2009-02-03 09:08:57 51°28.214 2°54.659 11.3 12.7 10 20.2
2009-02-03 09:09:02 51°28.232 2°54.664 11.6 12.7 9 20.7
2009-02-03 09:09:06 51°28.246 2°54.667 11.2 12.8 9 20.3
2009-02-03 09:09:12 51°28.267 2°54.672 10.8 12.8 9 19.1
2009-02-03 09:09:17 51°28.284 2°54.677 11 12.8 8 20.6
2009-02-03 09:09:22 51°28.302 2°54.681 10.4 12.8 9 21.2
2009-02-03 09:09:27 51°28.32 2°54.684 10 12.9 7 21.6
2009-02-03 09:09:32 51°28.337 2°54.689 9.7 12.6 10 21.5
2009-02-03 09:09:37 51°28.355 2°54.692 10.3 12.7 8 21.6
2009-02-03 09:09:42 51°28.372 2°54.696 10.6 12.8 8 21.6
2009-02-03 09:09:47 51°28.39 2°54.699 9.7 12.8 6 21.9
2009-02-03 09:09:52 51°28.408 2°54.704 10.3 12.9 9 21.9
2009-02-03 09:09:57 51°28.425 2°54.707 9.7 12.9 7 21.9
2009-02-03 09:10:02 51°28.443 2°54.711 9.8 12.9 8 22.4
2009-02-03 09:10:07 51°28.461 2°54.715 9 12.9 8 21.9
2009-02-03 09:10:11 51°28.475 2°54.719 10.4 13 8 20.2
2009-02-03 09:10:17 51°28.497 2°54.723 10.3 12.9 9 21.6
2009-02-03 09:10:22 51°28.514 2°54.728 10.5 12.9 9 22.2
2009-02-03 09:10:27 51°28.532 2°54.731 10.3 13 8 23
2009-02-03 09:10:32 51°28.55 2°54.736 10.3 13 9 22.6
2009-02-03 09:10:37 51°28.568 2°54.74 10.7 13 8 19
2009-02-03 09:10:42 51°28.585 2°54.746 11.5 12.9 10 20.5
2009-02-03 09:10:47 51°28.603 2°54.749 10.7 13 7 20.5
2009-02-03 09:10:52 51°28.621 2°54.754 10.7 13 10 21.2
2009-02-03 09:10:57 51°28.639 2°54.757 10 12.9 6 21.4
2009-02-03 09:11:02 51°28.657 2°54.762 9.8 13 9 22
2009-02-03 09:11:07 51°28.674 2°54.766 10.1 13 8 22.6
2009-02-03 09:11:12 51°28.692 2°54.771 10.3 12.9 10 22.9
2009-02-03 09:11:17 51°28.71 2°54.774 9.7 12.9 6 23
2009-02-03 09:11:22 51°28.727 2°54.779 9.7 12.8 10 22.6
2009-02-03 09:11:27 51°28.745 2°54.783 10 12.8 9 23.5
2009-02-03 09:11:32 51°28.763 2°54.787 10 12.9 9 23.6
2009-02-03 09:11:37 51°28.781 2°54.791 9.7 12.9 7 23.7
2009-02-03 09:11:42 51°28.798 2°54.795 9.3 12.9 8 24.2
2009-02-03 09:11:47 51°28.816 2°54.798 8.9 12.9 7 24.5
2009-02-03 09:11:52 51°28.834 2°54.801 8.8 12.8 7 24.5
2009-02-03 09:11:57 51°28.851 2°54.805 9.1 12.8 7 24.9
2009-02-03 09:12:02 51°28.869 2°54.808 9.4 12.8 7 25.1
2009-02-03 09:12:07 51°28.886 2°54.811 9.3 12.7 7 25.5
2009-02-03 09:12:12 51°28.903 2°54.816 10.5 12.6 9 25.5
2009-02-03 09:12:17 51°28.921 2°54.819 9.3 12.6 7 25.6
2009-02-03 09:12:22 51°28.938 2°54.824 10.7 12.7 10 25.9
2009-02-03 09:12:26 51°28.952 2°54.827 10.7 12.7 8 26
2009-02-03 09:12:32 51°28.973 2°54.833 11.2 12.6 9 25.9
2009-02-03 09:12:37 51°28.99 2°54.838 12.1 12.6 10 26
2009-02-03 09:12:42 51°29.007 2°54.842 11.9 12.6 9 26.1
2009-02-03 09:12:47 51°29.024 2°54.847 11.7 12.7 11 26.1
2009-02-03 09:12:52 51°29.042 2°54.852 12.2 12.8 8 26.3